sat.trackr.live / text

‹ back to catalog

STARLINK-5557

NORAD 55770 · 2023-028AF

PAYLOAD ACTIVE UNKNOWN

§ Identity

Operator
Country
US
Launch date
2023-03-03
Launch site
AFWTR
Launch vehicle
Mass (kg)
RCS (m²)

Purposes: comms

External: N2YO · Heavens-Above · Gunter

§ Orbital elements

Epoch: 2026-05-25T03:19:44.825664Z

Period
96.11 min
Inclination
70.0005°
Eccentricity
0.0002404
Mean motion
14.98330353 rev/d
Perigee alt
570.4 km
Apogee alt
573.7 km
Semi-major
6,950.2 km
B*
1.6844e-5
RAAN
31.7349°
Arg perigee
268.2728°
Mean anomaly
91.8156°
Rev number
17,798

§ Raw data

STARLINK-55571 55770U 23028AF  26145.13871326  .00000108  00000+0  16844-4 0  99932 55770  70.0005  31.7349 0002404 268.2728  91.8156 14.98330353177981

JSON: /api/v1/satellites/55770 · /tle

For live sub-satellite position, see the globe view (requires WebGL).

§ Visibility from observer

Set your observer location to see the next 7 days of passes ≥ 10°. The values pass through the URL so the page stays shareable.

No JS? Fill the form by hand. The geolocation button needs JavaScript.